Kamloops,

9:12 AM PDT on April 21, 2018 (GMT -0700)
Kamloops

Weather History for CYKA - October, 2012

Change the Weather History Date:

Friday, October 19, 2012

  Actual Average Record
Temperature  
Mean Temperature 56 °F -  
Max Temperature 67 °F 48 °F 74 °F (2014)
Min Temperature 46 °F 31 °F 28 °F (2008)
Degree Days  
Heating Degree Days 8    
Growing Degree Days 6 (Base 50)    
Moisture  
Dew Point 38 °F    
Average Humidity 56    
Maximum Humidity 76    
Minimum Humidity 23    
Precipitation  
Precipitation 0.00 in 0.03 in - ()
Sea Level Pressure  
Sea Level Pressure 29.56 in    
Wind  
Wind Speed 16 mph ()    
Max Wind Speed 29 mph    
Max Gust Speed 44 mph    
Averages and records for this station are not official NWS values.
T = Trace of Precipitation, MM = Missing Value Source: Averaged Metar Reports

Daily Weather History Graph

Daily Weather History Graph

Search for Another Location

Airport or City:

Astronomy

Oct. 19, 2012 Rise Set
Actual Time 7:32 AM PDT 6:00 PM PDT
Civil Twilight 6:58 AM PDT 6:33 PM PDT
Nautical Twilight 6:20 AM PDT 7:11 PM PDT
Astronomical Twilight 5:42 AM PDT 7:49 PM PDT
Moon 12:42 PM PDT (10/19) 9:22 PM PDT (10/19)
Length of Visible Light 11h 34m
Length of Day
10h 27m
Waxing Crescent, 24% of the Moon is Illuminated
Oct 19
Waxing Crescent
Oct 21
First Quarter
Oct 29
Full
Nov 6
Last Quarter
Nov 13
New

Hourly Weather History & Observations

Time (PDT) Temp. Dew Point Humidity Pressure Visibility Wind Dir Wind Speed Gust Speed Precip Events Conditions
12:00 AM 48.2 °F 39.2 °F 71% 29.67 in 40.0 mi ESE 19.6 mph - N/A   Overcast
1:00 AM 48.2 °F 39.2 °F 71% 29.66 in 40.0 mi ESE 23.0 mph - N/A   Overcast
2:00 AM 48.2 °F 39.2 °F 71% 29.63 in 40.0 mi ESE 21.9 mph 29.9 mph N/A   Mostly Cloudy
3:00 AM 48.2 °F 41.0 °F 76% 29.61 in 40.0 mi ESE 24.2 mph 32.2 mph N/A   Mostly Cloudy
4:00 AM 48.2 °F 41.0 °F 76% 29.58 in 40.0 mi ESE 23.0 mph 33.4 mph N/A   Overcast
5:00 AM 49 °F 40 °F 64% 29.55 in 37 mi ESE 27.6 mph - -   Mostly Cloudy
5:00 AM 50.0 °F 41.0 °F 71% 29.55 in 40.0 mi ESE 28.8 mph - N/A   Mostly Cloudy
6:00 AM 50.0 °F 41.0 °F 71% 29.57 in 40.0 mi East 21.9 mph 29.9 mph N/A   Scattered Clouds
7:00 AM 50.0 °F 41.0 °F 71% 29.57 in 40.0 mi East 17.3 mph - N/A   Mostly Cloudy
8:00 AM 50.0 °F 41.0 °F 71% 29.58 in 40.0 mi East 17.3 mph 27.6 mph N/A   Mostly Cloudy
8:24 AM - - N/A% - 40.0 mi East 10.4 mph 17.3 mph N/A Rain Light Rain Showers
8:44 AM - - N/A% - 40.0 mi ESE 4.6 mph - N/A   Mostly Cloudy
9:00 AM 51.8 °F 44.6 °F 76% 29.59 in 40.0 mi East 11.5 mph - N/A   Mostly Cloudy
10:00 AM 53.6 °F 44.6 °F 72% 29.61 in 40.0 mi East 2.3 mph - N/A   Mostly Cloudy
11:00 AM 52 °F 43 °F 63% 29.61 in 37 mi ESE 11.5 mph - -   Partly Cloudy
11:00 AM 51.8 °F 42.8 °F 71% 29.61 in 40.0 mi ESE 9.2 mph 17.3 mph N/A   Mostly Cloudy
12:00 PM 55.4 °F 42.8 °F 63% 29.59 in 40.0 mi East 6.9 mph - N/A   Mostly Cloudy
1:00 PM 57.2 °F 44.6 °F 63% 29.56 in 40.0 mi ESE 11.5 mph - N/A   Mostly Cloudy
2:00 PM 59.0 °F 44.6 °F 59% 29.51 in 40.0 mi Calm Calm - N/A   Mostly Cloudy
3:00 PM 66.2 °F 35.6 °F 32% 29.49 in 40.0 mi SW 18.4 mph 28.8 mph N/A   Mostly Cloudy
4:00 PM 66.2 °F 33.8 °F 30% 29.48 in 40.0 mi SW 19.6 mph 25.3 mph N/A   Scattered Clouds
5:00 PM 63 °F 35 °F 23% 29.48 in 37 mi West 18.4 mph - -   Scattered Clouds
5:00 PM 62.6 °F 35.6 °F 37% 29.48 in 40.0 mi West 15.0 mph 24.2 mph N/A   Partly Cloudy
6:00 PM 59.0 °F 33.8 °F 39% 29.48 in 40.0 mi NW 12.7 mph - N/A   Partly Cloudy
7:00 PM 59.0 °F 32.0 °F 36% 29.49 in 40.0 mi SSW 20.7 mph 28.8 mph N/A   Partly Cloudy
8:00 PM 57.2 °F 26.6 °F 31% 29.47 in 40.0 mi SW 24.2 mph 32.2 mph N/A   Partly Cloudy
9:00 PM 55.4 °F 28.4 °F 36% 29.50 in 40.0 mi SW 20.7 mph 29.9 mph N/A   Clear
10:00 PM 51.8 °F 28.4 °F 41% 29.52 in 40.0 mi SSW 11.5 mph - N/A   Clear
10:32 PM - - N/A% - 40.0 mi North 21.9 mph 43.7 mph N/A   Scattered Clouds
11:00 PM 49 °F 31 °F 38% 29.58 in 37 mi NNW 15.0 mph - -   Scattered Clouds
11:00 PM 48.2 °F 32.0 °F 54% 29.58 in 40.0 mi NNW 12.7 mph 21.9 mph N/A   Mostly Cloudy